CW7615 Weather Reports


Display with metric or nautical units.
time (UTC)temp
F
wind
direction
speed
MPH
gust
MPH
rain 1hr
in
rain 24hr
in
rain mn
in
humidity
%
barometer
mb
20260504081550 66 130 2.0 8.0 0.00 0.00 0.00 79 1014.4
20260504081047 65 137 3.0 7.0 0.00 0.00 0.00 79 1014.4
20260504080545 65 126 3.0 7.0 0.00 0.00 0.00 80 1014.3
20260504050518 60 17 1.0 4.0 0.00 0.00 0.00 85 1012.8
20260504050017 60 17 0.0 4.0 0.00 0.00 0.00 84 1012.9
20260504045621 60 58 1.0 4.0 0.00 0.00 0.00 84 1012.9
20260504045017 61 78 0.0 3.0 0.00 0.00 0.00 84 1013.0
20260504044517 61 78 0.0 2.0 0.00 0.00 0.00 83 1012.8
20260504044019 61 78 0.0 0.0 0.00 0.00 0.00 82 1012.8
20260504043516 61 46 0.0 2.0 0.00 0.00 0.00 81 1012.7
20260504043015 61 19 0.0 2.0 0.00 0.00 0.00 79 1012.7
20260504042515 61 355 0.0 4.0 0.00 0.00 0.00 79 1012.7
20260504042014 61 355 2.0 4.0 0.00 0.00 0.00 78 1012.7
20260504041515 61 344 1.0 5.0 0.00 0.00 0.00 78 1012.5
20260504041014 61 324 3.0 5.0 0.00 0.00 0.00 78 1012.5
20260504040514 61 339 3.0 5.0 0.00 0.00 0.00 78 1012.5
20260504040014 61 325 2.0 6.0 0.00 0.00 0.00 79 1012.6
20260504035515 61 309 2.0 8.0 0.00 0.00 0.00 79 1012.5
20260504035015 61 360 4.0 6.0 0.00 0.00 0.00 79 1012.4
20260504034514 61 355 3.0 5.0 0.00 0.00 0.00 79 1012.5
20260504034019 61 355 2.0 5.0 0.00 0.00 0.00 79 1012.5
20260504033512 61 343 2.0 4.0 0.00 0.00 0.00 79 1012.5
20260504033014 61 327 2.0 3.0 0.00 0.00 0.00 79 1012.5
20260504032512 61 346 2.0 4.0 0.00 0.00 0.00 80 1012.6
20260504032011 61 340 2.0 4.0 0.00 0.00 0.00 80 1012.6
20260504031511 60 309 2.0 4.0 0.00 0.00 0.00 80 1012.5
20260504031012 60 24 0.0 3.0 0.00 0.00 0.00 81 1012.6
20260504030510 60 26 0.0 4.0 0.00 0.00 0.00 81 1012.6
20260504030010 60 26 2.0 4.0 0.00 0.00 0.00 81 1012.7
20260504025510 60 355 0.0 3.0 0.00 0.00 0.00 82 1012.8
20260504025010 60 355 1.0 2.0 0.00 0.00 0.00 81 1012.8
20260504024509 60 355 0.0 3.0 0.00 0.00 0.00 81 1012.8
20260504024009 60 355 0.0 5.0 0.00 0.00 0.00 81 1012.7
20260504023509 60 5 2.0 6.0 0.00 0.00 0.00 81 1012.6
20260504023008 60 355 4.0 6.0 0.00 0.00 0.00 81 1012.6
20260504022511 60 360 3.0 8.0 0.00 0.00 0.00 81 1012.7
20260504022006 60 350 4.0 8.0 0.00 0.00 0.00 81 1012.9
20260504021506 60 5 5.0 8.0 0.00 0.00 0.00 81 1012.8
20260504021009 61 5 3.0 5.0 0.00 0.00 0.00 81 1012.9
20260504020506 61 348 2.0 4.0 0.00 0.00 0.00 81 1012.8
20260504020006 61 344 0.0 3.0 0.00 0.00 0.00 82 1012.9
20260504015508 61 360 0.0 4.0 0.00 0.00 0.00 82 1012.9
20260504015007 61 360 2.0 4.0 0.00 0.00 0.00 82 1012.9
20260504014505 60 5 1.0 4.0 0.00 0.00 0.00 81 1012.9
20260504014004 61 5 2.0 4.0 0.00 0.00 0.00 81 1012.9
20260504013504 61 355 2.0 4.0 0.00 0.00 0.00 82 1013.0
20260504013005 61 355 0.0 2.0 0.00 0.00 0.00 82 1013.0
20260504012503 61 355 0.0 1.0 0.00 0.00 0.00 82 1013.2
20260504012003 61 355 0.0 1.0 0.00 0.00 0.00 82 1013.2
20260504011502 61 355 0.0 1.0 0.00 0.00 0.00 82 1013.2
20260504011001 61 355 0.0 0.0 0.00 0.00 0.00 81 1013.2
20260504010500 61 355 0.0 3.0 0.00 0.00 0.00 81 1013.2
20260504010002 61 355 0.0 3.0 0.00 0.00 0.00 81 1013.1
20260504005600 61 355 2.0 4.0 0.00 0.00 0.00 81 1013.0
20260504005501 61 347 2.0 4.0 0.00 0.00 0.00 81 1013.0
20260504005059 61 349 1.0 4.0 0.00 0.00 0.00 82 1013.3
20260504004600 61 330 2.0 5.0 0.00 0.00 0.00 82 1013.3
20260504004100 61 342 2.0 5.0 0.00 0.00 0.00 84 1013.3
20260504003557 61 71 0.0 0.0 0.00 0.00 0.00 84 1013.4
20260504003056 62 71 0.0 2.0 0.00 0.00 0.00 84 1013.5
20260504002556 62 71 0.0 2.0 0.00 0.00 0.00 84 1013.5
20260504002055 62 71 0.0 1.0 0.00 0.00 0.00 83 1013.5
20260504001601 62 71 0.0 3.0 0.00 0.00 0.00 82 1013.6
20260504001054 62 71 0.0 3.0 0.00 0.00 0.00 82 1013.6
20260504000553 62 67 0.0 2.0 0.00 0.00 0.00 81 1013.6
20260504000056 62 67 0.0 3.0 0.00 0.00 0.00 80 1013.6
20260503235556 62 67 0.0 3.0 0.00 0.00 0.00 80 1013.7
20260503235053 63 28 1.0 6.0 0.00 0.00 0.00 79 1013.7
20260503234553 63 26 3.0 6.0 0.00 0.00 0.00 79 1013.6
20260503234055 63 355 4.0 8.0 0.00 0.00 0.00 79 1013.6
20260503233552 62 331 4.0 8.0 0.00 0.00 0.00 79 1013.6
20260503233100 62 355 4.0 9.0 0.00 0.00 0.00 79 1013.6
20260503232550 62 348 5.0 9.0 0.00 0.00 0.00 80 1013.6
20260503232050 62 355 3.0 8.0 0.00 0.00 0.00 80 1013.7
20260503231550 62 360 4.0 9.0 0.00 0.00 0.00 80 1013.6
20260503231050 62 13 4.0 8.0 0.00 0.00 0.00 81 1013.6
20260503230549 62 338 3.0 8.0 0.00 0.00 0.00 81 1013.6
20260503230049 62 355 2.0 5.0 0.00 0.00 0.00 82 1013.6
20260503225549 62 319 2.0 4.0 0.00 0.00 0.00 82 1013.8
20260503225049 62 299 2.0 4.0 0.00 0.00 0.00 82 1013.7
20260503224548 62 333 2.0 4.0 0.00 0.00 0.00 82 1013.7
20260503224047 62 355 0.0 3.0 0.00 0.00 0.00 82 1013.8
20260503223546 62 355 0.0 1.0 0.00 0.00 0.00 82 1013.9
20260503223046 62 355 0.0 3.0 0.00 0.00 0.00 82 1014.0
20260503222545 62 355 1.0 3.0 0.00 0.00 0.00 82 1014.0
20260503222045 62 5 0.0 1.0 0.00 0.00 0.00 83 1014.1
20260503221553 62 5 0.0 0.0 0.00 0.00 0.00 82 1014.2
20260503221043 62 5 0.0 0.0 0.00 0.00 0.00 82 1014.0
20260503220543 62 5 0.0 0.0 0.00 0.00 0.00 82 1014.1
20260503220050 63 5 0.0 0.0 0.00 0.00 0.00 81 1014.0
20260503215641 63 5 0.0 1.0 0.00 0.00 0.00 81 1014.0
20260503215041 63 5 0.0 2.0 0.00 0.00 0.00 80 1014.1
20260503214542 63 5 1.0 4.0 0.00 0.00 0.00 80 1014.0
20260503214040 63 5 2.0 4.0 0.00 0.00 0.00 81 1013.9
20260503213543 63 346 2.0 4.0 0.00 0.00 0.00 81 1013.8
20260503213040 63 350 2.0 4.0 0.00 0.00 0.00 81 1013.8
20260503212540 63 327 3.0 4.0 0.00 0.00 0.00 81 1013.8
20260503212040 63 360 2.0 3.0 0.00 0.00 0.00 81 1013.8
20260503211541 63 24 1.0 3.0 0.00 0.00 0.00 81 1013.7
20260503211040 63 24 0.0 0.0 0.00 0.00 0.00 81 1013.7
20260503210540 63 24 0.0 0.0 0.00 0.00 0.00 81 1013.7
20260503210049 63 25 0.0 2.0 0.00 0.00 0.00 80 1013.7
20260503205540 64 25 0.0 2.0 0.00 0.00 0.00 80 1013.6
20260503205040 64 22 0.0 1.0 0.00 0.00 0.00 79 1013.5
20260503204555 64 22 0.0 2.0 0.00 0.00 0.00 78 1013.4
20260503204039 64 22 1.0 4.0 0.00 0.00 0.00 78 1013.3
20260503203538 64 22 1.0 4.0 0.00 0.00 0.00 77 1013.3
20260503203039 64 27 3.0 6.0 0.00 0.00 0.00 77 1013.3
20260503202539 64 5 3.0 5.0 0.00 0.00 0.00 77 1013.3
20260503202039 64 337 2.0 5.0 0.00 0.00 0.00 77 1013.2
20260503201539 64 11 2.0 4.0 0.00 0.00 0.00 76 1013.2
20260503201038 65 15 2.0 5.0 0.00 0.00 0.00 76 1013.2
20260503200538 65 355 2.0 5.0 0.00 0.00 0.00 75 1013.2
20260503200044 65 44 2.0 4.0 0.00 0.00 0.00 75 1013.0
20260503195539 65 154 0.0 1.0 0.00 0.00 0.00 75 1012.9
20260503195037 66 154 0.0 1.0 0.00 0.00 0.00 75 1012.8
20260503194537 66 154 0.0 1.0 0.00 0.00 0.00 74 1012.7
20260503194037 66 154 0.0 2.0 0.00 0.00 0.00 74 1012.6
20260503193537 66 154 0.0 3.0 0.00 0.00 0.00 73 1012.7
20260503193036 66 154 0.0 3.0 0.00 0.00 0.00 73 1012.6
20260503192536 66 163 1.0 3.0 0.00 0.00 0.00 72 1012.5
20260503192037 66 176 0.0 4.0 0.00 0.00 0.00 72 1012.5
20260503191536 66 176 0.0 5.0 0.00 0.00 0.00 71 1012.5
20260503191036 67 196 1.0 4.0 0.00 0.00 0.00 71 1012.5
20260503190537 67 178 1.0 3.0 0.00 0.00 0.00 71 1012.4
20260503190044 67 180 1.0 2.0 0.00 0.00 0.00 72 1012.4
20260503185535 67 184 0.0 1.0 0.00 0.00 0.00 72 1012.3
20260503185035 67 184 0.0 3.0 0.00 0.00 0.00 72 1012.1
20260503184536 68 184 1.0 3.0 0.00 0.00 0.00 71 1012.1
20260503184034 68 184 0.0 4.0 0.00 0.00 0.00 71 1012.1
20260503183535 68 184 1.0 4.0 0.00 0.00 0.00 71 1012.1
20260503183033 68 169 2.0 4.0 0.00 0.00 0.00 70 1012.1
20260503182533 68 181 2.0 5.0 0.00 0.00 0.00 69 1012.2
20260503182032 68 203 1.0 5.0 0.00 0.00 0.00 69 1012.3
20260503181534 69 184 2.0 4.0 0.00 0.00 0.00 68 1012.4
20260503181032 69 183 0.0 2.0 0.00 0.00 0.00 68 1012.4
20260503180532 69 182 0.0 3.0 0.00 0.00 0.00 69 1012.3
20260503180032 69 182 0.0 5.0 0.00 0.00 0.00 68 1012.4
20260503175532 69 178 1.0 6.0 0.00 0.00 0.00 68 1012.3
20260503175030 69 180 1.0 6.0 0.00 0.00 0.00 70 1012.4
20260503174530 69 168 1.0 6.0 0.00 0.00 0.00 71 1012.5
20260503174029 69 173 3.0 9.0 0.00 0.00 0.00 71 1012.5
20260503173530 69 152 4.0 9.0 0.00 0.00 0.00 71 1012.5
20260503173036 69 155 4.0 8.0 0.00 0.00 0.00 71 1012.5
20260503172528 70 147 2.0 9.0 0.00 0.00 0.00 72 1012.6
20260503172029 70 198 5.0 9.0 0.00 0.00 0.00 71 1012.6
20260503171528 70 181 2.0 8.0 0.00 0.00 0.00 73 1012.6
20260503171028 70 190 3.0 8.0 0.00 0.00 0.00 73 1012.6
20260503170527 70 198 2.0 9.0 0.00 0.00 0.00 72 1012.7
20260503150516 71 109 7.0 10.0 0.00 0.00 0.00 74 1013.5
20260503131002 67 106 5.0 12.0 0.00 0.00 0.00 82 1014.9
20260503130502 67 98 3.0 11.0 0.00 0.00 0.00 82 1015.0
20260503120113 69 121 8.0 12.0 0.00 0.00 0.00 78 1015.5
20260503110554 67 106 5.0 11.0 0.00 0.00 0.00 80 1016.0